FW3135 Weather Reports


Display with metric or nautical units.
time (UTC)temp
F
wind
direction
speed
MPH
gust
MPH
rain 1hr
in
rain 24hr
in
rain mn
in
humidity
%
barometer
mb
20260831174818 73 360 10.0 20.0 0.00 0.00 0.00 66 1021.4
20260831174341 73 323 9.0 23.0 0.00 0.00 0.00 66 1021.4
20260831173816 74 360 13.0 23.0 0.00 0.00 0.00 64 1021.4
20260831173338 74 309 10.0 17.0 0.00 0.00 0.00 64 1021.5
20260831172814 74 360 7.0 18.0 0.00 0.00 0.00 64 1021.4
20260831172330 74 286 6.0 18.0 0.00 0.00 0.00 64 1021.4
20260831171813 74 355 8.0 20.0 0.00 0.00 0.00 64 1021.4
20260831171330 75 332 7.0 20.0 0.00 0.00 0.00 64 1021.3
20260831170832 75 355 12.0 18.0 0.00 0.00 0.00 64 1021.3
20260831170330 75 360 8.0 16.0 0.00 0.00 0.00 64 1021.4
20260831165832 75 300 7.0 17.0 0.00 0.00 0.00 64 1021.5
20260831165329 75 360 10.0 19.0 0.00 0.00 0.00 63 1021.2
20260831164833 75 351 12.0 19.0 0.00 0.00 0.00 62 1021.2
20260831164329 75 346 9.0 20.0 0.00 0.00 0.00 62 1021.4
20260831163850 75 346 13.0 22.0 0.00 0.00 0.00 61 1021.2
20260831163353 75 355 10.0 22.0 0.00 0.00 0.00 61 1021.2
20260831162827 75 360 9.0 20.0 0.00 0.00 0.00 60 1021.2
20260831162326 75 329 9.0 20.0 0.00 0.00 0.00 60 1021.4
20260831161822 75 35 11.0 22.0 0.00 0.00 0.00 59 1021.4
20260831161319 76 337 10.0 21.0 0.00 0.00 0.00 60 1021.4
20260831160823 75 323 10.0 23.0 0.00 0.00 0.00 61 1021.5
20260831160340 76 360 13.0 22.0 0.00 0.00 0.00 59 1021.4
20260831155820 76 360 11.0 21.0 0.00 0.00 0.00 59 1021.5
20260831155316 76 18 12.0 26.0 0.00 0.00 0.00 58 1021.5
20260831154818 76 39 12.0 26.0 0.00 0.00 0.00 59 1021.4
20260831154341 76 348 13.0 23.0 0.00 0.00 0.00 59 1021.4
20260831153815 76 336 8.0 23.0 0.00 0.00 0.00 60 1021.5
20260831153319 76 360 13.0 23.0 0.00 0.00 0.00 58 1021.4
20260831152815 76 334 11.0 27.0 0.00 0.00 0.00 59 1021.4
20260831152339 76 360 11.0 21.0 0.00 0.00 0.00 60 1021.4
20260831151813 76 59 12.0 21.0 0.00 0.00 0.00 59 1021.4
20260831151329 76 56 11.0 24.0 0.00 0.00 0.00 59 1021.5
20260831150831 76 355 11.0 24.0 0.00 0.00 0.00 59 1021.5
20260831150328 76 360 12.0 25.0 0.00 0.00 0.00 58 1021.6
20260831145831 76 360 13.0 25.0 0.00 0.00 0.00 58 1021.6
20260831145327 76 348 14.0 25.0 0.00 0.00 0.00 58 1021.6
20260831144830 76 360 15.0 25.0 0.00 0.00 0.00 59 1021.5
20260831144327 76 360 12.0 28.0 0.00 0.00 0.00 59 1021.5
20260831143825 76 22 13.0 29.0 0.00 0.00 0.00 60 1021.7
20260831143326 76 360 14.0 22.0 0.00 0.00 0.00 59 1021.8
20260831142824 76 69 12.0 26.0 0.00 0.00 0.00 60 1021.7
20260831142328 76 355 14.0 28.0 0.00 0.00 0.00 60 1021.8
20260831141822 76 9 15.0 28.0 0.00 0.00 0.00 61 1021.8
20260831141326 77 333 13.0 23.0 0.00 0.00 0.00 61 1021.9
20260831140822 77 335 12.0 23.0 0.00 0.00 0.00 60 1021.9
20260831140321 78 339 11.0 27.0 0.00 0.00 0.00 58 1021.9
20260831135824 77 315 9.0 27.0 0.00 0.00 0.00 58 1021.7
20260831135320 77 73 11.0 20.0 0.00 0.00 0.00 57 1021.7
20260831134844 77 360 13.0 19.0 0.00 0.00 0.00 55 1021.7
20260831134325 78 322 10.0 17.0 0.00 0.00 0.00 57 1021.8
20260831133822 78 360 10.0 23.0 0.00 0.00 0.00 58 1021.9
20260831133319 77 355 10.0 23.0 0.00 0.00 0.00 60 1022.0
20260831132822 78 60 9.0 18.0 0.00 0.00 0.00 61 1022.0
20260831132318 77 322 6.0 24.0 0.00 0.00 0.00 63 1022.1
20260831131820 77 355 14.0 24.0 0.00 0.00 0.00 62 1021.9
20260831131316 77 360 8.0 25.0 0.00 0.00 0.00 63 1022.0
20260831130841 77 28 13.0 25.0 0.00 0.00 0.00 63 1022.0
20260831130315 77 315 11.0 20.0 0.00 0.00 0.00 64 1022.2
20260831125817 77 347 9.0 19.0 0.00 0.00 0.00 64 1022.2
20260831125314 77 78 8.0 20.0 0.00 0.00 0.00 65 1022.2
20260831124837 77 321 8.0 20.0 0.00 0.00 0.00 65 1022.4
20260831124329 77 350 9.0 19.0 0.00 0.00 0.00 64 1022.4
20260831123832 77 360 11.0 22.0 0.00 0.00 0.00 65 1022.5
20260831123327 76 333 14.0 22.0 0.00 0.00 0.00 65 1022.4
20260831122824 77 324 8.0 19.0 0.00 0.00 0.00 63 1022.4
20260831122348 77 70 9.0 17.0 0.00 0.00 0.00 62 1022.5
20260831121823 77 312 10.0 17.0 0.00 0.00 0.00 63 1022.4
20260831121324 77 319 8.0 17.0 0.00 0.00 0.00 64 1022.6
20260831120827 77 306 4.0 19.0 0.00 0.00 0.00 63 1022.6
20260831120323 77 331 5.0 20.0 0.00 0.00 0.00 64 1022.5
20260831115827 77 55 7.0 20.0 0.00 0.00 0.00 65 1022.6
20260831115323 77 78 6.0 16.0 0.00 0.00 0.00 64 1022.6
20260831114818 77 305 6.0 16.0 0.00 0.00 0.00 60 1022.5
20260831114322 77 70 8.0 16.0 0.00 0.00 0.00 58 1022.7
20260831113839 77 316 6.0 17.0 0.00 0.00 0.00 60 1022.6
20260831113322 77 350 9.0 17.0 0.00 0.00 0.00 60 1022.6
20260831112819 77 45 4.0 14.0 0.00 0.00 0.00 61 1022.7
20260831112342 77 60 5.0 14.0 0.00 0.00 0.00 61 1022.8
20260831111816 76 360 5.0 18.0 0.00 0.00 0.00 61 1022.9
20260831111313 76 318 6.0 18.0 0.00 0.00 0.00 61 1022.9
20260831110817 76 41 9.0 15.0 0.00 0.00 0.00 62 1022.9
20260831110340 76 333 6.0 14.0 0.00 0.00 0.00 61 1023.0
20260831105829 76 104 8.0 14.0 0.00 0.00 0.00 62 1023.0
20260831105320 75 106 4.0 14.0 0.00 0.00 0.00 63 1022.9
20260831104831 75 42 7.0 15.0 0.00 0.00 0.00 64 1023.0
20260831104334 75 68 6.0 16.0 0.00 0.00 0.00 64 1022.9
20260831103822 75 86 6.0 16.0 0.00 0.00 0.00 64 1022.9
20260831103329 75 72 5.0 13.0 0.00 0.00 0.00 64 1023.0
20260831102834 75 80 7.0 15.0 0.00 0.00 0.00 65 1023.1
20260831101826 74 336 4.0 14.0 0.00 0.00 0.00 66 1023.0
20260831101322 74 360 5.0 14.0 0.00 0.00 0.00 66 1023.1
20260831100900 74 341 5.0 14.0 0.00 0.00 0.00 66 1023.1
20260831100315 74 347 6.0 15.0 0.00 0.00 0.00 68 1023.1
20260831095836 73 332 7.0 17.0 0.00 0.00 0.00 68 1023.0
20260831095353 73 33 7.0 17.0 0.00 0.00 0.00 68 1023.0
20260831094848 73 42 5.0 14.0 0.00 0.00 0.00 69 1023.0
20260831094329 73 53 8.0 15.0 0.00 0.00 0.00 69 1023.0
20260831093826 72 34 8.0 18.0 0.00 0.00 0.00 71 1023.0
20260831093350 72 343 9.0 18.0 0.00 0.00 0.00 71 1023.0
20260831092824 72 22 7.0 19.0 0.00 0.00 0.00 72 1023.1
20260831092328 72 311 10.0 20.0 0.00 0.00 0.00 72 1023.0
20260831091839 71 334 10.0 20.0 0.00 0.00 0.00 72 1022.9
20260831091330 71 331 8.0 14.0 0.00 0.00 0.00 73 1023.0
20260831090827 71 50 3.0 11.0 0.00 0.00 0.00 74 1023.0
20260831090329 71 62 5.0 13.0 0.00 0.00 0.00 74 1023.1
20260831085824 71 360 7.0 13.0 0.00 0.00 0.00 75 1023.0
20260831085327 71 90 2.0 9.0 0.00 0.00 0.00 76 1023.1
20260831084820 70 311 1.0 12.0 0.00 0.00 0.00 76 1023.0
20260831084315 70 34 5.0 15.0 0.00 0.00 0.00 76 1022.9
20260831083819 70 355 8.0 15.0 0.00 0.00 0.00 77 1022.9
20260831083315 69 51 6.0 15.0 0.00 0.00 0.00 77 1022.9
20260831082839 69 76 6.0 12.0 0.00 0.00 0.00 78 1023.0
20260831082315 69 65 6.0 16.0 0.00 0.00 0.00 78 1022.9
20260831081832 69 40 7.0 16.0 0.00 0.00 0.00 79 1023.0
20260831081335 69 57 7.0 15.0 0.00 0.00 0.00 79 1022.9
20260831080831 68 360 7.0 15.0 0.00 0.00 0.00 80 1022.9
20260831080330 68 101 7.0 14.0 0.00 0.00 0.00 80 1022.9
20260831075830 68 42 6.0 14.0 0.00 0.00 0.00 81 1023.0
20260831075328 68 45 3.0 15.0 0.00 0.00 0.00 81 1022.9
20260831074825 68 61 7.0 15.0 0.00 0.00 0.00 81 1022.9
20260831074320 68 64 3.0 8.0 0.00 0.00 0.00 82 1022.9
20260831073817 67 344 3.0 13.0 0.00 0.00 0.00 82 1022.9
20260831073341 67 360 6.0 12.0 0.00 0.00 0.00 82 1022.9
20260831072844 67 42 3.0 10.0 0.00 0.00 0.00 82 1022.8
20260831072314 67 34 2.0 13.0 0.00 0.00 0.00 83 1022.7
20260831071817 67 98 6.0 15.0 0.00 0.00 0.00 83 1022.6
20260831071314 67 40 5.0 15.0 0.00 0.00 0.00 83 1022.6
20260831070838 66 49 7.0 14.0 0.00 0.00 0.00 83 1022.5
20260831070334 66 310 4.0 11.0 0.00 0.00 0.00 83 1022.3
20260831065830 66 54 3.0 12.0 0.00 0.00 0.00 83 1022.4
20260831065319 66 341 5.0 12.0 0.00 0.00 0.00 84 1022.3
20260831064821 66 48 3.0 14.0 0.00 0.00 0.00 84 1022.3
20260831064314 66 355 5.0 14.0 0.00 0.00 0.00 84 1022.2
20260831063852 66 44 7.0 14.0 0.00 0.00 0.00 84 1022.3
20260831063332 66 69 4.0 9.0 0.00 0.00 0.00 84 1022.3
20260831062829 65 104 3.0 10.0 0.00 0.00 0.00 84 1022.2
20260831062335 65 340 3.0 12.0 0.00 0.00 0.00 84 1022.2
20260831061829 65 42 4.0 12.0 0.00 0.00 0.00 84 1022.3
20260831061331 65 338 4.0 9.0 0.00 0.00 0.00 84 1022.2
20260831060827 65 360 2.0 7.0 0.00 0.00 0.00 84 1022.2
20260831060323 65 117 2.0 9.0 0.00 0.00 0.00 84 1022.1
20260831055825 65 348 3.0 9.0 0.00 0.00 0.00 84 1022.1
20260831055348 65 347 3.0 9.0 0.00 0.00 0.00 84 1022.1
20260831054829 65 98 5.0 9.0 0.00 0.00 0.00 84 1022.1
20260831054344 65 305 3.0 8.0 0.00 0.00 0.00 83 1022.3
20260831053828 65 350 2.0 10.0 0.00 0.00 0.00 83 1022.2
20260831053351 65 78 3.0 12.0 0.00 0.00 0.00 83 1022.2
20260831052826 65 122 4.0 9.0 0.00 0.00 0.00 83 1022.2
20260831052320 65 42 3.0 10.0 0.00 0.00 0.00 83 1022.2
20260831051821 65 82 2.0 13.0 0.00 0.00 0.00 83 1022.2
20260831051334 65 67 3.0 13.0 0.00 0.00 0.00 83 1022.1
20260831050816 65 66 4.0 14.0 0.00 0.00 0.00 83 1022.0
20260831050332 65 42 4.0 14.0 0.00 0.00 0.00 83 1022.2
20260831045814 65 332 3.0 11.0 0.00 0.00 0.00 83 1022.2
20260831045357 65 46 4.0 11.0 0.00 0.00 0.00 83 1022.2
20260831044813 65 46 4.0 11.0 0.00 0.00 0.00 83 1022.2
20260831044337 65 31 5.0 12.0 0.00 0.00 0.00 83 1022.3
20260831043837 66 105 6.0 12.0 0.00 0.00 0.00 83 1022.3
20260831043312 66 63 4.0 12.0 0.00 0.00 0.00 83 1022.3
20260831042829 66 30 6.0 12.0 0.00 0.00 0.00 83 1022.3
20260831042326 66 72 4.0 12.0 0.00 0.00 0.00 83 1022.4
20260831041828 66 32 5.0 12.0 0.00 0.00 0.00 83 1022.4
20260831041344 66 57 3.0 13.0 0.00 0.00 0.00 83 1022.3
20260831040826 66 36 3.0 12.0 0.00 0.00 0.00 83 1022.4
20260831040323 66 49 5.0 12.0 0.00 0.00 0.00 83 1022.4
20260831035824 66 53 4.0 15.0 0.00 0.00 0.00 84 1022.3
20260831035340 66 329 7.0 15.0 0.00 0.00 0.00 84 1022.3
20260831034822 66 34 7.0 13.0 0.00 0.00 0.00 84 1022.4
20260831034318 66 63 3.0 10.0 0.00 0.00 0.00 84 1022.5
20260831033818 66 46 4.0 10.0 0.00 0.00 0.00 84 1022.5
20260831033315 66 348 4.0 8.0 0.00 0.00 0.00 84 1022.5
20260831032816 66 47 3.0 7.0 0.00 0.00 0.00 84 1022.5
20260831032313 66 360 3.0 9.0 0.00 0.00 0.00 84 1022.6
20260831031836 66 58 2.0 10.0 0.00 0.00 0.00 83 1022.5
20260831031328 66 355 5.0 10.0 0.00 0.00 0.00 84 1022.6
20260831030831 66 314 1.0 8.0 0.00 0.00 0.00 83 1022.5
20260831030328 66 46 3.0 11.0 0.00 0.00 0.00 83 1022.6
20260831025829 66 43 2.0 9.0 0.00 0.00 0.00 83 1022.6
20260831025325 66 349 1.0 9.0 0.00 0.00 0.00 83 1022.7
20260831024850 66 92 1.0 5.0 0.00 0.00 0.00 83 1022.6
20260831024324 66 121 2.0 5.0 0.00 0.00 0.00 83 1022.6
20260831023824 66 66 3.0 6.0 0.00 0.00 0.00 83 1022.5
20260831023325 66 80 2.0 11.0 0.00 0.00 0.00 83 1022.6
20260831022820 66 59 4.0 12.0 0.00 0.00 0.00 83 1022.6
20260831022345 66 302 1.0 9.0 0.00 0.00 0.00 83 1022.5
20260831021820 66 42 2.0 10.0 0.00 0.00 0.00 83 1022.5
20260831021317 66 348 3.0 11.0 0.00 0.00 0.00 83 1022.6
20260831020812 66 43 3.0 11.0 0.00 0.00 0.00 83 1022.5
20260831020336 66 345 2.0 10.0 0.00 0.00 0.00 83 1022.5
20260831015831 66 355 6.0 10.0 0.00 0.00 0.00 83 1022.6
20260831015333 66 348 3.0 10.0 0.00 0.00 0.00 83 1022.6
20260831014830 67 81 3.0 8.0 0.00 0.00 0.00 83 1022.5
20260831014334 67 360 1.0 6.0 0.00 0.00 0.00 83 1022.5
20260831013831 67 118 2.0 8.0 0.00 0.00 0.00 83 1022.6
20260831013328 67 75 4.0 9.0 0.00 0.00 0.00 83 1022.6
20260831012848 67 319 3.0 9.0 0.00 0.00 0.00 83 1022.7
20260831012322 67 104 2.0 9.0 0.00 0.00 0.00 83 1022.7
20260831011845 67 82 1.0 9.0 0.00 0.00 0.00 83 1022.7
20260831011325 67 92 3.0 10.0 0.00 0.00 0.00 83 1022.8
20260831010819 67 338 6.0 16.0 0.00 0.00 0.00 83 1022.7
20260831010342 67 315 4.0 16.0 0.00 0.00 0.00 83 1022.6
20260831005820 67 33 6.0 18.0 0.00 0.00 0.00 83 1022.6
20260831005346 67 71 7.0 18.0 0.00 0.00 0.00 83 1022.4
20260831004818 67 360 5.0 15.0 0.00 0.00 0.00 83 1022.4
20260831004316 67 342 7.0 19.0 0.00 0.00 0.00 83 1022.6
20260831003814 67 82 9.0 18.0 0.00 0.00 0.00 83 1022.5
20260831003355 67 69 7.0 17.0 0.00 0.00 0.00 83 1022.4
20260831002851 67 30 8.0 19.0 0.00 0.00 0.00 83 1022.4
20260831002331 67 55 10.0 23.0 0.00 0.00 0.00 83 1022.5
20260831001853 67 103 7.0 23.0 0.00 0.00 0.00 83 1022.5
20260831001327 67 32 11.0 20.0 0.00 0.00 0.00 83 1022.3
20260831000823 67 44 10.0 21.0 0.00 0.00 0.00 83 1022.4
20260831000327 67 355 10.0 20.0 0.00 0.00 0.00 83 1022.4
20260830235819 67 63 12.0 20.0 0.00 0.00 0.00 83 1022.4
20260830235323 67 56 11.0 21.0 0.00 0.00 0.00 83 1022.5
20260830234818 67 360 9.0 21.0 0.00 0.00 0.00 83 1022.6
20260830234315 67 27 10.0 21.0 0.00 0.00 0.00 83 1022.6
20260830233839 67 334 12.0 18.0 0.00 0.00 0.00 83 1022.6
20260830233340 67 41 10.0 22.0 0.00 0.00 0.00 83 1022.7
20260830232829 67 54 12.0 22.0 0.00 0.00 0.00 83 1022.7
20260830232323 67 63 8.0 20.0 0.00 0.00 0.00 83 1022.5
20260830231825 67 360 11.0 20.0 0.00 0.00 0.00 83 1022.6
20260830231320 67 26 10.0 19.0 0.00 0.00 0.00 83 1022.6
20260830230818 68 80 10.0 23.0 0.00 0.00 0.00 83 1022.6
20260830230315 68 53 12.0 23.0 0.00 0.00 0.00 83 1022.4
20260830225836 68 39 11.0 23.0 0.00 0.00 0.00 83 1022.5
20260830225333 68 360 11.0 23.0 0.00 0.00 0.00 83 1022.5
20260830224816 68 72 12.0 23.0 0.00 0.00 0.00 83 1022.3
20260830224328 68 34 10.0 28.0 0.00 0.00 0.00 83 1022.3
20260830223829 68 360 14.0 28.0 0.00 0.00 0.00 83 1022.2
20260830223323 68 360 9.0 22.0 0.00 0.00 0.00 83 1022.4
20260830222827 68 77 12.0 22.0 0.00 0.00 0.00 83 1022.3
20260830222319 68 53 11.0 21.0 0.00 0.00 0.00 83 1022.2
20260830221819 68 338 10.0 24.0 0.00 0.00 0.00 83 1022.2
20260830221315 68 360 11.0 25.0 0.00 0.00 0.00 83 1022.1
20260830220817 68 360 11.0 23.0 0.00 0.00 0.00 83 1022.2
20260830220338 68 40 13.0 23.0 0.00 0.00 0.00 83 1022.2
20260830215812 68 332 12.0 23.0 0.00 0.00 0.00 83 1022.2
20260830215334 68 82 12.0 21.0 0.00 0.00 0.00 83 1022.2
20260830214859 68 52 11.0 21.0 0.00 0.00 0.00 82 1022.2
20260830214333 68 42 12.0 20.0 0.00 0.00 0.00 82 1022.1
20260830213828 68 355 11.0 21.0 0.00 0.00 0.00 82 1021.9
20260830213329 68 355 11.0 21.0 0.00 0.00 0.00 82 1022.0
20260830212825 68 58 12.0 23.0 0.00 0.00 0.00 82 1021.9
20260830212328 69 360 12.0 23.0 0.00 0.00 0.00 81 1021.9
20260830211825 69 59 9.0 26.0 0.00 0.00 0.00 81 1021.8
20260830211320 69 312 13.0 22.0 0.00 0.00 0.00 81 1021.9
20260830210843 69 38 11.0 25.0 0.00 0.00 0.00 81 1021.8
20260830210317 69 360 12.0 25.0 0.00 0.00 0.00 81 1021.9
20260830205820 69 38 10.0 20.0 0.00 0.00 0.00 81 1021.8
20260830205343 69 9 12.0 20.0 0.00 0.00 0.00 81 1021.8
20260830204820 69 360 10.0 20.0 0.00 0.00 0.00 81 1021.8
20260830204341 69 360 12.0 20.0 0.00 0.00 0.00 81 1021.9
20260830203815 69 42 10.0 22.0 0.00 0.00 0.00 80 1021.8
20260830203358 69 360 11.0 22.0 0.00 0.00 0.00 80 1021.7
20260830202830 69 80 11.0 21.0 0.00 0.00 0.00 80 1021.7
20260830202319 69 343 11.0 23.0 0.00 0.00 0.00 79 1021.6
20260830201837 70 53 11.0 23.0 0.00 0.00 0.00 79 1021.5
20260830201325 70 51 10.0 19.0 0.00 0.00 0.00 79 1021.6
20260830200858 70 37 11.0 21.0 0.00 0.00 0.00 78 1021.5
20260830200327 70 355 10.0 21.0 0.00 0.00 0.00 78 1021.6
20260830195824 70 360 12.0 21.0 0.00 0.00 0.00 78 1021.5
20260830195347 70 360 11.0 22.0 0.00 0.00 0.00 77 1021.5
20260830194813 70 319 10.0 27.0 0.00 0.00 0.00 77 1021.3
20260830194336 70 14 11.0 27.0 0.00 0.00 0.00 76 1021.3
20260830193830 71 65 10.0 20.0 0.00 0.00 0.00 76 1021.2
20260830193346 71 32 11.0 20.0 0.00 0.00 0.00 76 1021.1
20260830192821 71 360 12.0 20.0 0.00 0.00 0.00 76 1021.1
20260830192325 71 355 10.0 22.0 0.00 0.00 0.00 75 1021.0
20260830191842 71 61 11.0 22.0 0.00 0.00 0.00 75 1021.1
20260830191325 72 360 11.0 21.0 0.00 0.00 0.00 75 1021.2
20260830190822 72 355 9.0 20.0 0.00 0.00 0.00 74 1020.9
20260830190318 72 340 9.0 20.0 0.00 0.00 0.00 74 1021.0
20260830185819 72 360 8.0 16.0 0.00 0.00 0.00 74 1021.0
20260830185316 73 55 8.0 16.0 0.00 0.00 0.00 73 1021.0
20260830184820 73 106 7.0 18.0 0.00 0.00 0.00 73 1021.0
20260830184315 73 51 7.0 18.0 0.00 0.00 0.00 72 1021.0
20260830183818 74 44 8.0 17.0 0.00 0.00 0.00 72 1021.0
20260830183358 74 331 8.0 18.0 0.00 0.00 0.00 72 1021.0
20260830182839 74 42 7.0 19.0 0.00 0.00 0.00 72 1021.2
20260830182314 74 34 9.0 19.0 0.00 0.00 0.00 72 1021.1
20260830181858 74 46 10.0 20.0 0.00 0.00 0.00 72 1021.2
20260830181333 75 342 10.0 20.0 0.00 0.00 0.00 71 1021.0
20260830180830 75 48 11.0 20.0 0.00 0.00 0.00 70 1021.1
20260830180354 75 360 8.0 17.0 0.00 0.00 0.00 69 1021.1
20260830175837 75 326 10.0 17.0 0.00 0.00 0.00 69 1021.2
20260830175315 75 360 9.0 19.0 0.00 0.00 0.00 69 1021.1